Probability
74 77 71 65 65 48 45 39 42 35 23 16 10 13 16 35 6 16 32 6 0 0 0 0 0 0 0 0 0 0 0 0 0 0 0 3 6 10
74 71 68 48 58 48 45 39 42 48 23 19 32 13 23 3 3 16 29 6 0 0 0 0 0 0 0 0 0 0 0 0 0 0 0 0 0 0
52 48 52 58 45 45 48 45 42 39 26 13 19 23 39 23 13 26 19 29 13 0 0 0 0 0 0 0 0 0 0 0 0 0 0 0 0 0
45 42 42 35 45 55 48 45 42 45 42 32 32 26 32 35 32 35 16 10 6 0 0 0 0 0 0 0 0 0 0 0 0 0 0 0 0 0
39 32 29 35 39 32 42 35 32 19 42 32 32 35 16 23 32 26 10 19 0 0 0 0 0 0 0 0 0 0 0 0 0 0 0 0 0 0
23 23 23 16 26 35 29 39 29 32 29 29 32 26 16 10 19 16 6 13 13 3 3 0 0 0 0 0 0 0 0 0 0 0 0 0 0 0
16 10 6 3 0 0 0 23 26 23 23 26 23 16 23 19 10 10 6 10 13 13 16 10 10 13 3 0 0 0 0 0 0 0 0 0 0 0
10 6 6 3 0 0 0 0 3 6 16 16 13 6 10 6 10 0 3 3 3 6 3 6 6 6 6 6 0 0 0 0 0 0 0 0 0 0
6 10 0 0 0 0 0 0 0 0 0 6 6 3 3 3 3 3 3 3 3 3 3 3 6 6 6 0 0 0 0 0 0 0 0 0 0 0
3 6 10 6 3 3 3 3 3 3 0 0 6 3 6 3 3 3 3 3 3 3 3 3 3 3 0 0 0 0 0 0 0 0 0 0 0 0
0 0 3 3 0 0 0 3 3 3 0 0 0 0 0 0 0 3 3 3 3 3 3 3 3 3 0 0 0 0 0 0 0 0 0 0 0 0
0 0 0 0 0 0 0 0 3 3 3 0 0 0 0 0 0 0 0 3 3 0 0 0 0 0 0 0 0 0 0 0 0 0 0 0 0 0
0 0 0 0 0 0 0 0 0 0 0 3 3 3 3 0 0 0 0 0 0 0 0 0 0 0 0 0 0 0 0 0 0 0 0 0 0 0
3 3 3 0 0 0 0 0 0 0 0 0 0 0 0 0 0 0 0 0 0 0 0 0 0 0 0 0 0 0 0 0 0 0 0 0 0 0
0 0 0 0 0 0 0 0 0 0 0 0 0 0 0 0 0 0 0 0 0 0 0 0 0 0 0 0 0 0 0 0 0 0 0 0 0 0
0 0 0 0 0 0 0 0 0 0 0 0 0 0 0 0 0 0 0 0 0 0 0 0 0 0 0 0 0 0 0 0 0 0 0 0 0 0
0 0 0 0 0 0 0 0 0 0 0 0 0 0 0 0 0 0 0 0 0 0 0 0 0 0 0 0 0 0 0 0 0 0 0 0 0 0
0 0 0 0 0 0 0 0 0 0 0 0 0 0 0 0 0 0 0 0 0 0 0 0 0 0 0 0 0 0 0 0 0 0 0 0 0 0
0 0 0 0 0 0 0 0 0 0 0 0 0 0 0 0 0 0 0 0 0 0 0 0 0 0 0 0 0 0 0 0 0 0 0 0 0 0
0 0 0 0 0 0 0 0 0 0 0 0 0 0 0 0 0 0 0 0 0 0 0 0 0 0 0 0 0 0 0 0 0 0 0 0 0 0
0 0 0 0 0 0 0 0 0 0 0 0 0 0 0 0 0 0 0 0 0 0 0 0 0 0 0 0 0 0 0 0 0 0 0 0 0 0
0 0 0 0 0 0 0 0 0 0 0 0 0 0 0 0 0 0 0 0 0 0 0 0 0 0 0 0 0 0 0 0 0 0 0 0 0 0
0 0 0 0 0 0 0 0 0 0 0 0 0 0 0 0 0 0 0 0 0 0 0 0 0 0 0 0 0 0 0 0 0 0 0 0 0 0
Height
5880 5880 5880 5880 5880 5880 5880 5880 5880 5880 5879 5878 5877 5876 5875 5875 5874 5873 5872 5871 5870 5870 5869 5867 5866 5865 5864 5863 5862 5861 5861 5860 5859 5858 5857 5855 5855 5854
5875 5875 5875 5875 5875 5875 5875 5874 5874 5874 5873 5872 5871 5870 5870 5869 5867 5867 5865 5864 5863 5862 5861 5860 5859 5857 5856 5855 5854 5853 5852 5851 5850 5849 5848 5847 5846 5844
5870 5870 5869 5869 5869 5869 5869 5868 5868 5867 5867 5866 5865 5864 5863 5862 5861 5860 5858 5857 5856 5855 5854 5852 5850 5849 5848 5846 5845 5844 5843 5842 5841 5839 5838 5837 5836 5835
5864 5864 5864 5863 5863 5863 5862 5862 5861 5860 5860 5859 5858 5857 5856 5855 5854 5852 5851 5849 5848 5847 5845 5844 5842 5840 5839 5837 5836 5834 5833 5832 5830 5829 5828 5827 5825 5824
5858 5858 5858 5857 5857 5857 5856 5856 5855 5854 5853 5852 5851 5850 5849 5848 5846 5845 5843 5841 5840 5838 5837 5835 5833 5831 5829 5827 5826 5824 5822 5821 5820 5818 5817 5815 5814 5813
5853 5853 5852 5851 5851 5851 5850 5850 5849 5848 5846 5845 5844 5842 5841 5840 5838 5836 5834 5833 5831 5829 5827 5825 5823 5821 5819 5816 5815 5813 5811 5810 5808 5807 5805 5804 5802 5801
5848 5848 5847 5846 5845 5845 5844 5844 5842 5841 5840 5838 5836 5835 5833 5832 5830 5828 5826 5824 5822 5820 5818 5815 5813 5811 5808 5805 5803 5802 5800 5798 5797 5795 5794 5792 5790 5789
5844 5843 5842 5841 5840 5839 5838 5837 5836 5834 5833 5831 5829 5827 5825 5823 5821 5819 5817 5815 5813 5810 5808 5805 5803 5800 5798 5795 5793 5791 5789 5787 5785 5783 5781 5780 5778 5777
5839 5838 5837 5836 5835 5834 5832 5831 5829 5827 5826 5824 5821 5819 5817 5815 5813 5810 5808 5805 5803 5800 5798 5795 5792 5790 5787 5785 5782 5780 5778 5775 5773 5771 5769 5768 5766 5764
5835 5834 5832 5831 5829 5828 5826 5824 5822 5820 5818 5816 5813 5811 5809 5806 5804 5801 5799 5796 5793 5791 5788 5785 5782 5779 5776 5774 5772 5769 5766 5764 5761 5760 5758 5756 5754 5752
5830 5829 5827 5825 5824 5822 5820 5818 5816 5813 5811 5808 5805 5802 5800 5797 5795 5793 5790 5787 5784 5781 5778 5775 5772 5769 5766 5764 5761 5758 5755 5753 5751 5748 5746 5744 5741 5739
5826 5824 5822 5820 5818 5816 5814 5811 5808 5806 5803 5800 5798 5795 5792 5789 5786 5784 5781 5778 5775 5772 5769 5766 5763 5759 5756 5753 5750 5747 5745 5742 5739 5737 5734 5731 5729 5726
5821 5819 5817 5815 5812 5810 5807 5804 5802 5799 5796 5793 5789 5786 5783 5781 5778 5775 5771 5768 5765 5762 5759 5755 5752 5749 5746 5743 5740 5736 5733 5730 5727 5725 5722 5719 5716 5713
5816 5814 5811 5809 5806 5803 5800 5798 5795 5792 5788 5785 5782 5778 5775 5772 5768 5765 5762 5759 5756 5753 5749 5746 5743 5739 5736 5732 5729 5725 5722 5718 5715 5712 5709 5706 5703 5700
5810 5808 5805 5803 5800 5797 5794 5790 5787 5784 5781 5777 5774 5770 5767 5763 5760 5756 5753 5750 5746 5743 5739 5736 5732 5728 5725 5721 5717 5713 5710 5706 5703 5699 5696 5693 5690 5687
5804 5802 5799 5796 5793 5790 5786 5783 5780 5776 5772 5769 5765 5762 5758 5755 5751 5747 5743 5740 5736 5732 5728 5725 5720 5717 5713 5708 5705 5701 5697 5694 5691 5687 5684 5680 5677 5674
5798 5795 5792 5789 5785 5782 5779 5775 5772 5768 5764 5760 5757 5753 5749 5745 5741 5737 5733 5729 5725 5721 5717 5713 5709 5704 5700 5696 5692 5689 5685 5682 5678 5675 5672 5669 5666 5662
5792 5788 5785 5781 5778 5775 5771 5767 5764 5760 5756 5752 5748 5743 5739 5735 5731 5727 5723 5719 5715 5710 5706 5702 5698 5693 5689 5685 5681 5677 5673 5670 5667 5663 5660 5657 5654 5651
5784 5781 5777 5774 5770 5767 5763 5759 5755 5751 5747 5742 5738 5734 5729 5725 5721 5717 5713 5709 5704 5700 5696 5691 5687 5683 5679 5675 5671 5666 5663 5659 5656 5653 5649 5646 5643 5640
5777 5773 5770 5766 5762 5759 5755 5750 5746 5742 5738 5733 5729 5724 5720 5716 5711 5707 5703 5699 5695 5690 5686 5682 5677 5673 5669 5665 5661 5657 5653 5650 5646 5643 5640 5636 5633 5630
5769 5765 5762 5758 5754 5750 5746 5742 5737 5733 5728 5724 5719 5715 5710 5706 5702 5698 5694 5689 5685 5681 5677 5673 5669 5665 5660 5656 5653 5649 5645 5641 5638 5634 5631 5628 5624 5621
5761 5757 5753 5749 5745 5741 5737 5733 5728 5724 5719 5714 5710 5706 5701 5697 5693 5689 5685 5681 5676 5672 5668 5664 5660 5656 5652 5649 5645 5641 5637 5634 5630 5626 5623 5620 5617 5613
5753 5749 5745 5741 5737 5733 5728 5724 5719 5714 5710 5705 5701 5697 5692 5688 5684 5680 5676 5672 5668 5664 5660 5656 5653 5649 5645 5641 5637 5634 5630 5626 5623 5620 5616 5613 5610 5607
Wind_Speed
20 21 21 22 23 23 23 23 24 24 25 25 25 24 24 24 24 24 25 25 26 26 26 27 28 28 28 29 29 29 30 30 30 31 31 31 31 32
20 21 22 22 23 23 24 24 24 25 25 25 26 26 26 26 26 26 27 27 27 28 28 29 29 30 31 31 32 32 33 33 33 33 34 34 34 35
21 21 21 21 22 24 25 25 25 25 25 26 27 27 28 28 28 28 28 28 29 29 30 31 31 31 32 33 34 34 35 35 35 36 36 36 37 37
21 21 22 22 23 23 24 24 24 25 26 26 27 28 29 29 29 30 30 30 30 31 31 32 32 32 33 34 35 36 37 37 38 38 38 38 39 39
20 21 22 22 22 23 23 24 25 25 26 27 28 29 29 30 31 31 31 32 32 32 33 34 34 35 36 37 37 38 39 39 39 38 39 40 41 41
20 21 21 21 21 22 23 24 24 25 26 27 28 30 30 30 31 31 32 33 34 34 35 35 36 36 37 38 37 37 38 39 39 40 40 41 42 42
19 20 21 21 22 23 23 24 25 26 27 28 29 30 31 31 32 33 34 34 35 35 36 36 36 37 37 37 37 38 39 40 40 41 41 41 43 43
19 19 20 20 21 23 23 24 25 26 27 29 30 31 32 32 33 33 34 35 36 36 36 36 37 37 37 37 37 38 38 39 40 41 42 42 43 43
19 19 20 20 21 22 23 24 25 26 28 30 31 31 32 33 33 33 34 35 36 37 37 37 38 37 38 38 38 39 40 40 39 40 40 40 41 41
19 19 20 20 21 22 23 24 25 27 28 30 31 32 33 33 33 34 34 35 36 37 37 38 38 39 38 38 38 39 39 39 38 39 40 41 41 42
19 20 20 21 21 23 25 26 27 28 29 30 30 31 32 32 33 33 33 34 34 34 35 35 36 37 37 38 38 37 37 37 39 39 40 41 42 42
19 20 21 21 22 24 25 26 26 27 28 29 30 31 31 30 31 32 33 33 34 34 34 35 35 35 36 37 37 38 38 38 38 39 39 40 41 41
21 22 22 23 24 25 26 26 27 27 28 29 30 31 31 32 32 32 33 33 33 34 34 34 34 34 36 37 38 38 39 39 40 40 41 41 41 42
23 23 24 24 26 26 26 27 28 29 29 30 31 32 32 32 32 32 32 33 33 33 33 33 35 36 37 38 39 39 39 40 40 41 41 42 42 42
24 24 25 26 26 27 27 28 28 29 30 30 31 32 32 32 32 32 33 33 33 34 34 35 36 38 39 39 40 40 41 41 41 41 41 41 41 41
25 25 26 26 28 28 29 29 30 30 30 31 32 33 33 34 34 35 35 35 35 37 37 38 38 39 40 40 40 40 40 40 40 40 39 39 39 39
26 27 27 28 28 29 29 30 31 31 32 33 34 35 35 36 36 37 37 37 37 38 38 38 39 39 39 39 39 38 38 38 38 37 37 37 37 38
28 28 28 29 29 29 30 31 32 33 34 34 35 36 36 36 36 36 37 36 37 37 37 37 37 37 38 37 36 36 36 36 36 36 36 36 36 36
28 29 29 30 31 31 32 33 34 34 34 35 36 36 36 36 35 35 35 35 35 36 36 36 36 35 35 34 34 34 34 33 33 33 33 33 34 34
29 30 30 31 32 32 33 34 34 34 35 35 35 35 34 34 34 34 34 34 34 35 35 34 34 33 32 32 32 31 31 31 31 31 31 31 31 32
30 31 31 32 32 33 33 34 34 34 35 35 34 34 34 34 34 33 33 33 33 33 32 32 31 31 31 31 30 30 30 29 29 29 29 28 28 29
31 31 31 32 32 33 34 34 35 35 35 35 34 34 33 33 33 33 33 32 31 31 31 30 30 30 29 29 29 28 28 27 27 27 27 26 26 26
31 31 32 32 33 34 34 35 35 34 34 33 33 32 32 32 32 32 31 31 30 30 29 29 28 28 27 27 27 27 26 26 26 26 25 25 25 25
Wind_Direction
262 263 264 265 265 266 268 270 270 271 271 272 273 275 276 278 277 277 277 276 275 275 276 276 275 276 275 274 275 275 275 276 276 275 275 274 274 274
263 266 266 266 265 266 269 271 272 272 271 272 273 275 278 278 278 279 279 277 276 277 278 278 277 277 277 278 276 275 276 275 276 276 275 275 274 274
265 266 268 268 268 269 270 272 273 272 272 271 273 276 278 278 279 280 280 279 277 278 279 280 279 278 277 277 278 277 276 276 276 276 276 276 275 275
267 267 268 268 269 271 272 273 274 273 273 273 274 277 278 278 279 281 280 281 280 280 281 281 281 280 279 278 278 277 277 276 276 276 276 276 276 275
270 270 270 268 270 271 273 274 274 275 275 274 274 276 278 279 281 283 282 283 281 280 280 280 280 280 280 279 278 278 278 278 278 278 277 276 276 276
271 270 272 272 271 273 274 274 275 276 277 278 278 278 280 282 284 284 284 284 283 282 282 281 281 280 281 280 279 279 278 278 277 277 278 277 277 278
278 274 274 273 274 276 276 277 278 279 281 281 281 281 281 282 283 284 284 285 285 284 283 283 282 282 283 282 281 280 279 278 278 277 277 278 278 278
283 282 281 280 279 279 279 278 281 282 283 283 283 282 283 284 284 285 285 285 285 284 285 284 284 284 283 282 281 281 280 280 280 279 278 278 278 279
285 285 283 282 283 284 283 283 284 284 284 286 288 286 286 285 286 287 287 286 286 285 285 286 286 286 285 284 283 282 282 282 281 281 280 280 280 281
289 288 286 285 285 287 287 287 287 288 288 289 290 290 289 288 289 289 290 290 288 287 287 287 288 287 287 286 285 284 284 285 284 283 283 283 282 282
292 291 289 287 290 291 291 291 291 291 291 292 292 292 292 291 290 291 291 291 291 289 289 289 290 289 288 288 288 288 288 288 287 286 285 284 283 283
297 296 296 295 295 296 295 295 294 294 294 294 294 294 293 293 292 292 293 292 292 291 291 290 291 290 290 290 291 290 289 289 288 287 286 286 286 285
300 300 300 299 299 298 297 297 297 296 297 297 297 297 297 296 296 296 295 295 294 293 292 292 294 294 294 294 293 293 291 290 290 289 287 286 286 286
301 301 301 301 300 299 298 297 299 299 299 299 300 299 299 299 298 297 297 297 297 297 297 297 296 296 295 295 294 293 292 291 291 291 290 289 288 287
301 301 301 302 302 301 300 300 301 301 301 301 301 300 299 299 300 300 299 298 298 297 297 297 296 295 295 295 294 294 293 292 292 291 290 290 289 288
302 301 301 302 303 303 302 302 302 303 302 302 302 302 301 301 300 300 299 298 298 298 298 299 298 297 296 295 295 294 293 293 292 292 291 290 290 289
303 302 302 303 304 304 304 304 304 304 303 303 302 302 301 300 300 300 300 299 299 300 300 300 299 299 298 297 296 295 294 293 292 292 291 291 290 290
303 303 303 304 304 304 305 305 305 304 304 304 303 303 302 302 301 301 301 301 301 301 301 301 301 300 299 298 297 296 295 294 293 293 292 292 292 292
304 304 304 304 304 305 305 305 305 305 305 304 304 304 303 303 302 302 302 302 302 302 302 303 303 302 301 301 300 299 298 296 296 296 295 294 294 294
304 305 305 305 304 304 305 306 306 306 306 306 305 305 305 305 304 304 303 303 303 303 304 304 304 304 303 303 303 302 301 299 299 298 297 296 296 296
305 305 305 305 306 306 307 307 307 307 307 307 306 306 306 306 305 304 304 304 304 305 305 305 304 305 305 304 304 304 303 302 302 301 301 300 299 299
304 305 305 306 307 308 308 308 308 308 308 308 307 307 306 305 305 304 304 304 304 305 305 305 305 305 305 305 305 305 305 305 304 304 304 303 303 302
304 305 306 307 308 309 309 309 308 308 308 308 308 307 306 305 304 305 305 305 305 305 305 306 307 307 307 307 307 307 308 308 307 307 306 306 306 306